Regional Weather Roundup
Issued by NWS Green Bay, WI

Home | Current Version | Previous Version | Text Only | Print | Product List | Glossary On
Versions: 1 2 3 4 5 6 7 8 9 10 11 12 13 14 15 16 17 18 19 20 21 22 23 24 25 26 27 28 29 30 31 32 33 34 35 36 37 38 39 40 41 42 43 44 45 46 47 48 49 50
000
ASUS43 KGRB 211559
RWRGRB

NORTH-CENTRAL AND NORTHEAST WISCONSIN REGIONAL WEATHER ROUNDUP
NATIONAL WEATHER SERVICE GREEN BAY WI
1000 AM CST SUN DEC 21 2014

WIZ005-009-010>012-018-019-211700-
NORTH CENTRAL WISCONSIN

CITY           SKY/WX    TMP DP  RH WIND       PRES   REMARKS
IRONWOOD       CLOUDY    32  28  86 S7        29.91F
MANITOWISH WTR NOT AVBL
ARBOR VITAE    NOT AVBL
EAGLE RIVER    NOT AVBL
LAND O LAKES   NOT AVBL
RHINELANDER    CLOUDY    28  26  92 SE8       29.99F FOG
PHILLIPS       NOT AVBL
ANTIGO         NOT AVBL
TOMAHAWK       NOT AVBL
MERRILL        NOT AVBL
$$

WIZ013-073-211700-
NORTHEAST WISCONSIN

CITY           SKY/WX    TMP DP  RH WIND       PRES   REMARKS
IRON MOUNTAIN  CLOUDY    28  25  88 SE8       30.06F FOG
MARINETTE      CLOUDY    32  27  80 S6        30.12R
$$

WIZ017-030-035>037-045-211700-
CENTRAL WISCONSIN

CITY           SKY/WX    TMP DP  RH WIND       PRES   REMARKS
MEDFORD        NOT AVBL
WAUSAU         CLOUDY    30  28  92 S9        30.02F FOG
MOSINEE        CLOUDY    30  30 100 SE10      30.04S FOG
MARSHFIELD     CLOUDY    31  29  92 SE10      30.00F FOG
WISC RAPIDS    CLOUDY    32  29  88 S9        30.05F FOG
STEVENS POINT  NOT AVBL
WAUPACA        NOT AVBL
SHAWANO        NOT AVBL
CLINTONVILLE   NOT AVBL
$$

WIZ038-039-048-051-211700-
FOX VALLEY

CITY           SKY/WX    TMP DP  RH WIND       PRES   REMARKS
NWS GREEN BAY  CLOUDY    33  30  88 S8        30.12S FOG
APPLETON       CLOUDY    32  30  93 S13       30.10S FOG
OSHKOSH        CLOUDY    33  30  88 S10       30.11S FOG
FOND DU LAC    CLOUDY    33  30  88 S13       30.12S FOG
$$

WIZ022-050-052-211700-
EAST CENTRAL WISCONSIN

CITY           SKY/WX    TMP DP  RH WIND       PRES   REMARKS
STURGEON BAY   CLOUDY    34  28  80 S9        30.14S
MANITOWOC      NOT AVBL
SHEBOYGAN      CLOUDY    34  30  85 S12       30.14F FOG
$$

LMZ563-521-522-541>543-211700-
LAKESHORE

STATION/POSITION TIME  TEMP    WIND        PRES    VSBY  WAVE
                       AIR SEA DIR/SP/G                  HT/PER
                 (UTC) (F)     (DEG/KT/KT) (MB)    (MI)  (FT/S)
SHEBOYGAN LKSHOR 1500   36 34  180/ 18/ 19 1021.8F
KEWAUNEE LKSHORE 1500   35     190/ 11/ 12 1019.6F
ALGOMA MARINA    1500          230/ 12/ 14   N/A
NORTHPORT PIER   1500   33     150/  4/  6 1020.7S
SISTER BAY LKSHO 1500          180/  8/ 10   N/A
CHAMBERS ISLAND  1500   33     160/  4/  9 1020.7S
MENOMINEE LKSHOR 1500   32     160/  9/ 10 1020.6F
$$



USA.gov is the U.S. government's official web portal to all federal, state and local government web resources and services.